Location: South Tamworth Observatory
(43.8246°N, 71.3026°W)
Time: 17:55:04
(UTC-04:00)

Amateur Radio Satellites - All Passes

Search period start: 30 September 2014 17:25
Search period end: 01 October 2014 17:25
Location: South Tamworth Observatory, 43.8246°N, 71.3026°W

Satellite Date Start Highest point End Downlink Frequencies (MHz)
Time Altitude Azimuth
Hamsat 30 Sep 17:39:12 17:43:31 73° 75° (ENE) 17:47:49 145.90 MHz
KITSAT 1 30 Sep 17:47:07 17:55:13 86° 302° (WNW) 18:03:22 435.175 FM
OPAL 30 Sep 18:06:45 18:11:53 78° 288° (WNW) 18:16:54 ?
Sapphire 30 Sep 18:18:10 18:23:28 50° 53° (NE) 18:28:43 437.095 MHz 1200 baud AX-25 AFSK
Oscar 10/S400 30 Sep 18:34:00 18:54:04 54° 169° (S) 21:20:11 145.825 - 145.975 CW/USB, Beacon 145.810 USB
SO-50 30 Sep 18:35:43 18:38:48 19° 111° (ESE) 18:41:57 436.795 FM
SO-67 30 Sep 18:41:36 18:44:53 44° 74° (ENE) 18:48:12 435.3500 MHz FM
PCSat 30 Sep 18:43:47 18:49:15 83° 59° (ENE) 18:54:40 145.825 MHz
JAS-2 30 Sep 19:04:18 19:07:47 18° 270° (W) 19:11:23 435.800 - 435.900 CW/SSB, 435.910 FM
STRAND 1 30 Sep 19:07:23 19:12:11 38° 98° (E) 19:16:57 ?
Hamsat 30 Sep 19:18:53 19:19:57 11° 272° (W) 19:21:01 145.90 MHz
KITSAT 1 30 Sep 19:45:09 19:51:48 27° 326° (NW) 19:58:29 435.175 FM
OPAL 30 Sep 19:48:01 19:49:53 12° 307° (NW) 19:51:44 ?
HO-68 30 Sep 19:49:30 19:55:56 38° 62° (ENE) 20:02:24 435.675 MHz FM
Sapphire 30 Sep 20:02:10 20:06:35 26° 252° (WSW) 20:10:58 437.095 MHz 1200 baud AX-25 AFSK
SO-50 30 Sep 20:14:31 20:18:56 55° 309° (NW) 20:23:29 436.795 FM
SO-67 30 Sep 20:17:07 20:18:09 11° 270° (W) 20:19:11 435.3500 MHz FM
UKube-1 30 Sep 20:25:02 20:28:13 20° 64° (ENE) 20:31:26 145.840 MHz, 145.915 MHz
PCSat 30 Sep 20:29:06 20:31:55 14° 257° (WSW) 20:34:43 145.825 MHz
UOSAT-12 30 Sep 20:45:13 20:49:19 32° 115° (ESE) 20:53:29 437.025 FM, 437.400 FM
STRAND 1 30 Sep 20:46:50 20:51:14 29° 295° (WNW) 20:55:37 ?
ZACube-1 30 Sep 21:04:05 21:07:10 18° 63° (ENE) 21:10:17 437.345 MHz
Oscar 11 30 Sep 21:30:40 21:35:00 72° 75° (ENE) 21:39:23 145.825 FM, Beacon 2401.500 USB
ISS 30 Sep 21:32:12 21:34:15 16° 133° (SE) 21:36:19 145.800 FM
HO-68 30 Sep 21:36:43 21:43:30 46° 261° (W) 21:50:21 435.675 MHz FM
KITSAT 1 30 Sep 21:46:26 21:50:34 14° 355° (N) 21:54:42 435.175 FM
FUNcube-1 30 Sep 21:53:35 21:58:00 53° 72° (ENE) 22:02:30 145.950 - 145.970 MHz USB
SO-50 30 Sep 21:58:39 22:00:33 12° 331° (NNW) 22:02:29 436.795 FM
UKube-1 30 Sep 22:00:04 22:04:09 41° 261° (W) 22:08:16 145.840 MHz, 145.915 MHz
Saudisat 1A 30 Sep 22:11:51 22:15:59 37° 47° (NE) 22:20:04 436.775 MHz
UOSAT-12 30 Sep 22:25:06 22:29:24 36° 314° (NW) 22:33:47 437.025 FM, 437.400 FM
ZACube-1 30 Sep 22:38:43 22:43:09 53° 261° (W) 22:47:41 437.345 MHz
ISS 30 Sep 23:07:16 23:10:35 75° 329° (NNW) 23:13:55 145.800 FM
Oscar 11 30 Sep 23:10:25 23:11:41 11° 271° (W) 23:12:57 145.825 FM, Beacon 2401.500 USB
FUNcube-1 30 Sep 23:31:49 23:34:43 17° 270° (W) 23:37:39 145.950 - 145.970 MHz USB
KITSAT 1 30 Sep 23:43:54 23:49:44 21° 26° (NNE) 23:55:33 435.175 FM
Saudisat 1A 30 Sep 23:51:40 23:55:26 28° 245° (WSW) 23:59:10 436.775 MHz
ISS 01 Oct 00:44:54 00:47:41 24° 349° (NNW) 00:50:28 145.800 FM
RS-15 01 Oct 01:05:42 01:14:22 28° 103° (ESE) 01:22:55 29.354 - 29.394 USB, Beacon 29.352 USB
Oscar 16 01 Oct 01:19:34 01:23:19 20° 92° (E) 01:27:02 437.025 USB, Beacon 2401.1428
AO-Echo 01 Oct 01:32:15 01:34:28 13° 89° (E) 01:36:41 ?
KITSAT 1 01 Oct 01:39:01 01:47:01 60° 51° (NE) 01:54:57 435.175 FM
JAS-1B 01 Oct 01:39:39 01:43:38 19° 92° (E) 01:47:47 435.800 - 435.900 CW/SSB
Oscar 19 01 Oct 02:16:47 02:21:55 65° 102° (ESE) 02:27:00 437.125 CW, 437.150 USB
TMSAT-1 01 Oct 02:21:59 02:23:31 11° 87° (E) 02:25:03 436.925 FM
ISS 01 Oct 02:22:25 02:25:08 23° 9° (N) 02:27:51 145.800 FM
ITAMSAT 1 01 Oct 02:28:14 02:33:02 35° 97° (E) 02:37:47 435.822 SSB
Uribyol 2 01 Oct 02:29:08 02:34:01 38° 98° (E) 02:38:51 436.500 FM
Oscar 16 01 Oct 02:57:58 03:02:59 53° 289° (WNW) 03:07:58 437.025 USB, Beacon 2401.1428
SO-50 01 Oct 03:04:32 03:08:46 30° 44° (NE) 03:13:03 436.795 FM
AO-27 01 Oct 03:06:22 03:11:38 79° 104° (ESE) 03:16:52 436.795 MHz FM
AO-Echo 01 Oct 03:08:45 03:13:46 80° 285° (WNW) 03:18:56 ?
RS-15 01 Oct 03:14:24 03:25:27 82° 305° (NW) 03:36:28 29.354 - 29.394 USB, Beacon 29.352 USB
JAS-1B 01 Oct 03:29:12 03:34:46 60° 289° (WNW) 03:40:43 435.800 - 435.900 CW/SSB
Gurwin Techsat 1B 01 Oct 03:30:05 03:35:23 66° 102° (ESE) 03:40:39 435.225 FM
KITSAT 1 01 Oct 03:34:58 03:42:01 35° 252° (WSW) 03:49:03 435.175 FM
UOSAT-12 01 Oct 03:35:05 03:36:14 11° 27° (NNE) 03:37:23 437.025 FM, 437.400 FM
OPAL 01 Oct 03:44:59 03:49:29 31° 63° (ENE) 03:54:00 ?
Oscar 19 01 Oct 03:57:20 04:00:45 18° 300° (WNW) 04:04:08 437.125 CW, 437.150 USB
TMSAT-1 01 Oct 03:58:50 04:04:11 87° 104° (ESE) 04:09:30 436.925 FM
ISS 01 Oct 03:58:59 04:02:18 63° 29° (NNE) 04:05:35 145.800 FM
ITAMSAT 1 01 Oct 04:07:51 04:12:26 32° 294° (WNW) 04:17:00 435.822 SSB
Uribyol 2 01 Oct 04:08:51 04:13:20 30° 295° (WNW) 04:17:48 436.500 FM
Uosat F 01 Oct 04:30:29 04:34:52 29° 96° (E) 04:39:14 435.120 FM
SO-50 01 Oct 04:44:55 04:49:29 43° 242° (WSW) 04:54:04 436.795 FM
AO-7 01 Oct 04:47:26 04:55:29 51° 101° (ESE) 05:03:30 29.400 - 29.500 MHz
AO-27 01 Oct 04:47:29 04:50:29 16° 302° (WNW) 04:53:29 436.795 MHz FM
AO-Echo 01 Oct 04:50:09 04:51:46 12° 302° (WNW) 04:53:24 ?
Gurwin Techsat 1B 01 Oct 05:11:13 05:14:50 19° 300° (WNW) 05:18:26 435.225 FM
UOSAT-12 01 Oct 05:13:08 05:17:39 42° 48° (NE) 05:22:06 437.025 FM, 437.400 FM
OPAL 01 Oct 05:23:24 05:28:14 38° 260° (W) 05:33:06 ?
Hamsat 01 Oct 05:25:54 05:27:17 11° 89° (E) 05:28:39 145.90 MHz
RS-15 01 Oct 05:30:10 05:39:41 33° 334° (NNW) 05:49:17 29.354 - 29.394 USB, Beacon 29.352 USB
ISS 01 Oct 05:36:17 05:38:42 19° 226° (SW) 05:41:07 145.800 FM
MaSat-1 01 Oct 05:40:36 05:45:26 69° 114° (ESE) 05:50:02 437.345 MHz
TMSAT-1 01 Oct 05:40:37 05:43:22 14° 302° (WNW) 05:46:07 436.925 FM
JAS-2 01 Oct 06:07:27 06:13:56 51° 99° (E) 06:21:07 435.800 - 435.900 CW/SSB, 435.910 FM
Uosat F 01 Oct 06:09:06 06:13:41 36° 293° (WNW) 06:18:14 435.120 FM
STRAND 1 01 Oct 06:24:35 06:29:36 63° 72° (ENE) 06:34:39 ?
AO-7 01 Oct 06:40:34 06:48:05 40° 301° (WNW) 06:55:36 29.400 - 29.500 MHz
UOSAT-12 01 Oct 06:53:41 06:57:36 26° 247° (WSW) 07:01:28 437.025 FM, 437.400 FM
Hamsat 01 Oct 06:59:30 07:03:41 65° 286° (WNW) 07:07:49 145.90 MHz
MaSat-1 01 Oct 07:19:01 07:22:19 18° 311° (NW) 07:25:28 437.345 MHz
SO-67 01 Oct 07:36:34 07:39:53 44° 99° (E) 07:43:12 435.3500 MHz FM
RS-15 01 Oct 07:47:56 07:56:36 25° 9° (N) 08:05:25 29.354 - 29.394 USB, Beacon 29.352 USB
JAS-2 01 Oct 07:53:01 07:58:47 34° 295° (WNW) 08:05:08 435.800 - 435.900 CW/SSB, 435.910 FM
STRAND 1 01 Oct 08:06:00 08:09:13 17° 269° (W) 08:12:28 ?
AO-7 01 Oct 08:37:58 08:38:35 10° 324° (NW) 08:39:12 29.400 - 29.500 MHz
Sapphire 01 Oct 09:01:43 09:06:31 34° 111° (ESE) 09:11:21 437.095 MHz 1200 baud AX-25 AFSK
HO-68 01 Oct 09:02:44 09:09:07 33° 96° (E) 09:15:28 435.675 MHz FM
SO-67 01 Oct 09:11:05 09:12:31 12° 295° (WNW) 09:13:57 435.3500 MHz FM
Oscar 11 01 Oct 09:19:08 09:20:44 12° 89° (E) 09:22:21 145.825 FM, Beacon 2401.500 USB
PCSat 01 Oct 09:26:40 09:31:58 59° 116° (ESE) 09:37:18 145.825 MHz
UKube-1 01 Oct 09:46:56 09:50:46 29° 96° (E) 09:54:34 145.840 MHz, 145.915 MHz
RS-15 01 Oct 10:01:52 10:12:31 49° 41° (NE) 10:23:30 29.354 - 29.394 USB, Beacon 29.352 USB
ZACube-1 01 Oct 10:27:05 10:31:02 28° 95° (E) 10:34:52 437.345 MHz
Sapphire 01 Oct 10:44:47 10:49:51 40° 309° (NW) 10:54:57 437.095 MHz 1200 baud AX-25 AFSK
HO-68 01 Oct 10:50:08 10:57:02 52° 294° (WNW) 11:03:55 435.675 MHz FM
Oscar 11 01 Oct 10:53:04 10:57:23 66° 286° (WNW) 11:01:39 145.825 FM, Beacon 2401.500 USB
PCSat 01 Oct 11:11:17 11:15:46 26° 316° (NW) 11:20:16 145.825 MHz
FUNcube-1 01 Oct 11:17:41 11:22:17 87° 284° (WNW) 11:26:44 145.950 - 145.970 MHz USB
UKube-1 01 Oct 11:23:10 11:26:54 28° 293° (WNW) 11:30:36 145.840 MHz, 145.915 MHz
Oscar 19 01 Oct 11:58:28 12:01:27 16° 59° (ENE) 12:04:27 437.125 CW, 437.150 USB
ZACube-1 01 Oct 12:03:24 12:07:24 30° 292° (WNW) 12:11:18 437.345 MHz
RS-15 01 Oct 12:14:26 12:25:14 60° 245° (WSW) 12:36:30 29.354 - 29.394 USB, Beacon 29.352 USB
JAS-1B 01 Oct 12:26:35 12:32:06 24° 62° (ENE) 12:37:01 435.800 - 435.900 CW/SSB
Sapphire 01 Oct 12:34:13 12:34:52 10° 332° (NNW) 12:35:32 437.095 MHz 1200 baud AX-25 AFSK
Oscar 16 01 Oct 12:37:33 12:42:11 34° 67° (ENE) 12:46:50 437.025 USB, Beacon 2401.1428
HO-68 01 Oct 12:41:08 12:43:07 11° 315° (NW) 12:45:07 435.675 MHz FM
AO-Echo 01 Oct 12:46:32 12:49:45 19° 62° (ENE) 12:53:00 ?
AO-27 01 Oct 12:48:31 12:52:09 20° 61° (ENE) 12:55:47 436.795 MHz FM
FUNcube-1 01 Oct 12:56:55 12:57:52 11° 302° (WNW) 12:58:49 145.950 - 145.970 MHz USB
Gurwin Techsat 1B 01 Oct 13:15:11 13:18:33 17° 60° (ENE) 13:21:55 435.225 FM
Oscar 19 01 Oct 13:34:57 13:40:09 78° 257° (WSW) 13:45:22 437.125 CW, 437.150 USB
TMSAT-1 01 Oct 13:42:53 13:46:52 22° 62° (ENE) 13:50:51 436.925 FM
ITAMSAT 1 01 Oct 13:47:30 13:52:35 61° 72° (ENE) 13:57:43 435.822 SSB
Uribyol 2 01 Oct 13:48:15 13:53:23 66° 72° (ENE) 13:58:33 436.500 FM
MaSat-1 01 Oct 13:55:40 13:57:50 15° 47° (NE) 13:59:50 437.345 MHz
Saudisat 1A 01 Oct 13:58:32 14:02:48 53° 120° (ESE) 14:07:07 436.775 MHz
AO-7 01 Oct 13:58:57 14:04:23 20° 47° (NE) 14:09:48 29.400 - 29.500 MHz
JAS-1B 01 Oct 14:14:51 14:22:25 66° 257° (WSW) 14:28:47 435.800 - 435.900 CW/SSB
Oscar 16 01 Oct 14:16:53 14:21:31 32° 264° (W) 14:26:10 437.025 USB, Beacon 2401.1428
AO-Echo 01 Oct 14:23:34 14:28:08 52° 260° (W) 14:32:46 ?
AO-27 01 Oct 14:26:05 14:31:11 61° 259° (WSW) 14:36:21 436.795 MHz FM
RS-15 01 Oct 14:31:51 14:35:07 12° 266° (W) 14:38:26 29.354 - 29.394 USB, Beacon 29.352 USB
Gurwin Techsat 1B 01 Oct 14:52:38 14:57:55 72° 257° (WSW) 15:03:15 435.225 FM
TMSAT-1 01 Oct 15:21:14 15:26:24 54° 260° (W) 15:31:36 436.925 FM
ITAMSAT 1 01 Oct 15:29:05 15:32:30 18° 269° (W) 15:35:57 435.822 SSB
Uribyol 2 01 Oct 15:30:08 15:33:20 16° 270° (W) 15:36:33 436.500 FM
MaSat-1 01 Oct 15:31:26 15:34:30 33° 251° (WSW) 15:37:11 437.345 MHz
Saudisat 1A 01 Oct 15:39:11 15:42:40 23° 319° (NW) 15:46:11 436.775 MHz
Uosat F 01 Oct 15:44:57 15:49:42 47° 70° (ENE) 15:54:30 435.120 FM
AO-7 01 Oct 15:47:36 15:55:52 76° 68° (ENE) 16:04:09 29.400 - 29.500 MHz
KITSAT 1 01 Oct 16:09:36 16:16:30 32° 107° (ESE) 16:23:24 435.175 FM
Hamsat 01 Oct 16:21:12 16:22:38 12° 61° (ENE) 16:24:04 145.90 MHz
JAS-2 01 Oct 16:23:46 16:27:34 21° 60° (ENE) 16:31:32 435.800 - 435.900 CW/SSB, 435.910 FM
PCSat 01 Oct 16:31:12 16:34:06 14° 34° (NE) 16:37:00 145.825 MHz
